Beaumont, TX

4:29 AM CDT on August 18, 2017 (GMT -0500)
Southeast Texas Regional

Weather History for KBPT - December, 2013

Change the Weather History Date:

Monday, December 9, 2013

  Actual Average Record
Temperature  
Mean Temperature 46 °F 55 °F  
Max Temperature 49 °F 65 °F 80 °F (1919)
Min Temperature 42 °F 46 °F 24 °F (1917)
Degree Days  
Heating Degree Days 19 11  
Month to date heating degree days 97 88  
Since 1 July heating degree days 339 283  
Cooling Degree Days 0 1  
Month to date cooling degree days 17 9  
Year to date cooling degree days 3012 2864  
Moisture  
Dew Point 43 °F    
Average Humidity 88    
Maximum Humidity 96    
Minimum Humidity 80    
Precipitation  
Precipitation 0.14 in 0.16 in 1.88 in (1992)
Month to date precipitation 0.17 1.45  
Year to date precipitation 55.00 56.63  
Snow  
Snow 0.00 in 0.00 in 0.00 in ()
Month to date snowfall 0.0 0.0  
Since 1 July snowfall 0.0 0.0  
Snow Depth 0.00 in    
Sea Level Pressure  
Sea Level Pressure 30.13 in    
Wind  
Wind Speed 11 mph (NNE)    
Max Wind Speed 21 mph    
Max Gust Speed 26 mph    
Visibility 6 miles    
Events Rain    
T = Trace of Precipitation, MM = Missing Value Source: NWS Daily Summary

Daily Weather History Graph

Daily Weather History Graph

Search for Another Location

Airport or City:

Trip Planner

Search our weather history database for the weather conditions in past years. The results will help you decide how hot, cold, wet, or windy it might be!

Date:

Astronomy

Dec. 09, 2013 Rise Set
Actual Time 7:00 AM CST 5:16 PM CST
Civil Twilight 6:34 AM CST 5:42 PM CST
Nautical Twilight 6:04 AM CST 6:12 PM CST
Astronomical Twilight 5:35 AM CST 6:41 PM CST
Moon 12:19 PM CST (12/9) No Moon Set
Length of Visible Light 11h 08m
Length of Day
10h 16m
Waxing Crescent, 51% of the Moon is Illuminated
Dec 9
Waxing Crescent
Dec 17
Full
Dec 25
Last Quarter
Jan 1
New
Jan 7
First Quarter

Hourly Weather History & Observations

Time (CST) Temp. Windchill Dew Point Humidity Pressure Visibility Wind Dir Wind Speed Gust Speed Precip Events Conditions
12:53 AM 46.9 °F - 43.0 °F 86% 30.10 in 10.0 mi North 6.9 mph - N/A   Overcast
1:16 AM 46.4 °F 43.5 °F 42.8 °F 87% 30.11 in 10.0 mi North 5.8 mph - N/A   Overcast
1:53 AM 46.9 °F - 43.0 °F 86% 30.11 in 10.0 mi North 8.1 mph - N/A   Overcast
2:04 AM 46.4 °F 42.4 °F 42.8 °F 87% 30.11 in 10.0 mi North 8.1 mph - N/A   Overcast
2:20 AM 46.4 °F 42.9 °F 42.8 °F 87% 30.10 in 10.0 mi North 6.9 mph - N/A   Overcast
2:27 AM 46.4 °F 42.4 °F 42.8 °F 87% 30.10 in 10.0 mi North 8.1 mph - N/A   Overcast
2:53 AM 46.9 °F - 43.0 °F 86% 30.09 in 10.0 mi NNE 6.9 mph - N/A   Overcast
3:53 AM 46.9 °F - 43.0 °F 86% 30.09 in 10.0 mi NNE 5.8 mph - N/A   Overcast
4:19 AM 46.4 °F 43.5 °F 42.8 °F 87% 30.09 in 10.0 mi NNE 5.8 mph - N/A   Overcast
4:53 AM 46.9 °F - 43.0 °F 86% 30.08 in 10.0 mi North 8.1 mph - N/A   Overcast
5:44 AM 46.4 °F 43.5 °F 44.6 °F 93% 30.10 in 10.0 mi NNE 5.8 mph - N/A   Overcast
5:53 AM 46.9 °F - 44.1 °F 90% 30.10 in 10.0 mi NNE 5.8 mph - N/A   Overcast
6:53 AM 46.9 °F - 44.1 °F 90% 30.12 in 8.0 mi North 5.8 mph - N/A   Overcast
7:53 AM 46.9 °F - 44.1 °F 90% 30.12 in 4.0 mi NNE 6.9 mph - N/A   Overcast
8:53 AM 48.0 °F - 44.1 °F 86% 30.14 in 8.0 mi NNE 10.4 mph - N/A   Overcast
9:53 AM 48.9 °F - 45.0 °F 86% 30.16 in 10.0 mi North 8.1 mph - N/A   Overcast
10:53 AM 48.0 °F - 45.0 °F 89% 30.15 in 10.0 mi NE 11.5 mph - 0.00 in   Overcast
11:09 AM 48.0 °F - 45.0 °F 89% 30.15 in - NE 11.5 mph - 0.00 in   Overcast
11:11 AM 48.2 °F - 44.6 °F 87% 30.15 in 2.0 mi NNE 10.4 mph - 0.00 in Rain Light Rain
11:19 AM 48.2 °F - 44.6 °F 87% 30.15 in 2.0 mi NNE 11.5 mph - 0.00 in Rain Light Rain
11:53 AM 48.0 °F - 45.0 °F 89% 30.13 in 2.0 mi NNE 11.5 mph - 0.00 in Rain Light Rain
12:18 PM 48.2 °F - 44.6 °F 87% 30.11 in 4.0 mi NNE 11.5 mph - 0.01 in Rain Light Rain
12:30 PM 48.2 °F - 44.6 °F 87% 30.10 in 2.0 mi NNE 11.5 mph - 0.01 in Rain Light Rain
12:50 PM 46.4 °F 41.1 °F 44.6 °F 93% 30.09 in 1.8 mi NNE 11.5 mph - 0.02 in Rain Light Rain
12:53 PM 48.0 °F - 45.0 °F 89% 30.09 in 2.0 mi NNE 10.4 mph - 0.02 in Rain Light Rain
12:57 PM 48.2 °F - 44.6 °F 87% 30.09 in 3.0 mi North 9.2 mph - 0.00 in Rain Light Rain
1:53 PM 46.9 °F - 45.0 °F 93% 30.06 in 2.5 mi NNE 11.5 mph - 0.01 in Rain Light Rain
2:12 PM 46.4 °F 41.9 °F 44.6 °F 93% 30.07 in 4.0 mi North 9.2 mph - 0.01 in Rain Light Rain
2:28 PM 46.4 °F 41.5 °F 44.6 °F 93% 30.07 in 2.5 mi North 10.4 mph - 0.02 in Rain Light Rain
2:53 PM 48.0 °F - 45.0 °F 89% 30.05 in 4.0 mi NNE 10.4 mph - 0.03 in Rain Light Rain
3:10 PM 46.4 °F 40.4 °F 44.6 °F 93% 30.05 in 2.5 mi NE 13.8 mph - 0.01 in Rain Light Rain
3:50 PM 46.4 °F 41.5 °F 44.6 °F 93% 30.05 in 5.0 mi NE 10.4 mph - 0.02 in   Overcast
3:53 PM 46.9 °F - 44.1 °F 90% 30.05 in 6.0 mi NE 11.5 mph - 0.02 in   Overcast
3:56 PM 46.4 °F 41.1 °F 44.6 °F 93% 30.05 in 2.5 mi NNE 11.5 mph - N/A   Overcast
4:53 PM 46.0 °F 41.9 °F 44.1 °F 93% 30.09 in 4.0 mi North 8.1 mph - 0.01 in Rain Light Rain
5:03 PM 46.4 °F 41.5 °F 44.6 °F 93% 30.09 in 1.5 mi NNW 10.4 mph - 0.00 in Rain Light Rain
5:53 PM 46.0 °F 40.6 °F 43.0 °F 89% 30.11 in 1.5 mi North 11.5 mph - 0.05 in Rain Light Rain
6:00 PM 46.4 °F 41.1 °F 42.8 °F 87% 30.10 in 8.0 mi North 11.5 mph - 0.00 in   Overcast
6:53 PM 45.0 °F 38.2 °F 42.1 °F 90% 30.13 in 10.0 mi North 15.0 mph - 0.00 in Rain Light Rain
7:53 PM 44.1 °F 36.8 °F 41.0 °F 89% 30.16 in 5.0 mi North 16.1 mph - 0.00 in   Overcast
8:53 PM 43.0 °F 36.8 °F 41.0 °F 93% 30.19 in 4.0 mi North 11.5 mph - N/A   Overcast
9:25 PM 42.8 °F 35.8 °F 39.2 °F 87% 30.20 in 5.0 mi North 13.8 mph 25.3 mph N/A   Overcast
9:33 PM 42.8 °F 34.8 °F 39.2 °F 87% 30.20 in 5.0 mi North 17.3 mph 23.0 mph N/A   Overcast
9:44 PM 42.8 °F 34.8 °F 39.2 °F 87% 30.21 in 5.0 mi North 17.3 mph - N/A   Overcast
9:50 PM 42.8 °F 34.3 °F 39.2 °F 87% 30.20 in 5.0 mi North 19.6 mph 25.3 mph N/A   Overcast
9:53 PM 43.0 °F 35.1 °F 39.0 °F 86% 30.21 in 10.0 mi North 17.3 mph 25.3 mph N/A   Overcast
10:09 PM 42.8 °F 35.1 °F 39.2 °F 87% 30.21 in 10.0 mi North 16.1 mph - N/A   Overcast
10:22 PM 42.8 °F 36.2 °F 39.2 °F 87% 30.22 in 10.0 mi North 12.7 mph - N/A   Overcast
10:53 PM 42.1 °F 35.7 °F 39.9 °F 92% 30.23 in 10.0 mi NNW 11.5 mph - N/A   Overcast
11:53 PM 42.1 °F 33.6 °F 39.0 °F 89% 30.25 in 10.0 mi NNW 18.4 mph 21.9 mph N/A   Overcast